Location: Newark
(45.9456°N, 15.4064°E)
Time: 03:20:01
(UTC+00:00)

SR - Pass Details

Date: 04 February 2020
Orbit: 575 x 881 km, 66.7° (Epoch: 16 February)

Event Time Altitude Azimuth Distance (km) Brightness Sun altitude
Rises 01:13:03 0° 330° (NNW) 3,434 - -51.2°
Reaches altitude 10° 01:16:43 10° 352° (N) 2,449 - -50.7°
Maximum altitude 01:19:58 15° 27° (NNE) 2,041 - -50.3°
Drops below altitude 10° 01:23:06 10° 63° (ENE) 2,338 - -49.8°
Exits shadow 01:25:57 - 84° (E) 3,041 ? -49.4°
Sets 01:26:28 0° 86° (E) 3,194 ? -49.4°
